Flag for U.S.A. Weather past 2 weeks in Fort Wayne, Indiana, U.S.A.

Now
70 °F

Passing clouds.


Feels Like: 71 °F
Forecast: 64 / 81 °F
Wind: 14 mph from Southwest

Location: Fort Wayne International Airport

Current Time: May 26, 2015 at 12:48:49 AM

Latest Report: May 25, 2015 at 11:54 PM


Visibility: 10 mi

Pressure: 30.05 "Hg

Humidity: 79%

Dew point: 63 °F

Location of Fort WayneLocation

Historic Weather in Fort Wayne — Graph

°F

Fort Wayne temperature yesterday

Maximum temperature yesterday: 79 °F (at 2:54 PM)
Minimum temperature yesterday: 69 °F (at 3:54 AM)
Average temperature yesterday: 74 °F

Past Weeks' High & Low Weather Summary

 TemperatureHumidityPressure
High82 °F (May 17, 4:54 PM)97% (May 10, 11:54 PM)30.45 "Hg (May 10, 11:54 PM)
Low37 °F (May 20, 3:54 AM)28% (May 22, 3:54 PM)29.80 "Hg (May 11, 4:54 PM)
Average62 °F69%30.13 "Hg
* Reported May 10 10:54 PM — May 25 10:54 PM, Fort Wayne, Weather by CustomWeather, © 2015

Note: Actual official high and low records may vary slightly from our data, if they occured in-between our weather recording intervals... More about our weather records

Advertising

Fort Wayne weather history for previous 24 hours

 ConditionsComfort  
Time TempWeatherWind HumidityBarometerVisibility
10:54 PM
Mon, May 25
71 °FPassing clouds.15 mph76%30.02 "Hg10 mi
9:54 PM73 °FPartly sunny.10 mph69%30.02 "Hg10 mi
8:54 PM74 °FPartly sunny.13 mph64%30.00 "Hg10 mi
7:54 PM77 °FPartly sunny.16 mph58%29.99 "Hg10 mi
6:54 PM78 °FPartly sunny.21 mph56%29.98 "Hg10 mi
5:54 PM78 °FBroken clouds.22 mph60%29.98 "Hg10 mi
4:54 PM78 °FPartly sunny.23 mph58%29.98 "Hg10 mi
3:54 PM78 °FPartly sunny.23 mph58%29.98 "Hg8 mi
2:54 PM79 °FPartly sunny.25 mph58%29.99 "Hg10 mi
1:54 PM77 °FPartly sunny.29 mph64%30.00 "Hg10 mi
12:54 PM74 °FMostly cloudy.25 mph71%30.01 "Hg10 mi
11:54 AM75 °FMostly cloudy.28 mph69%30.00 "Hg10 mi
10:54 AM74 °FPartly sunny.20 mph71%30.00 "Hg10 mi
9:54 AM72 °FMostly cloudy.24 mph76%30.00 "Hg10 mi
8:54 AM71 °FLight rain. More clouds than sun.18 mph78%29.99 "Hg10 mi
7:54 AM69 °FLight rain. Mostly cloudy.20 mph81%30.00 "Hg9 mi
6:54 AM71 °FOvercast.16 mph68%29.99 "Hg10 mi
5:54 AM71 °FMostly cloudy.16 mph63%29.98 "Hg10 mi
4:54 AM70 °FMostly cloudy.14 mph64%29.98 "Hg10 mi
3:54 AM69 °FPassing clouds.13 mph63%29.99 "Hg10 mi
2:54 AM70 °FPassing clouds.14 mph59%30.01 "Hg10 mi
1:54 AM70 °FPassing clouds.12 mph59%30.03 "Hg10 mi
12:54 AM71 °FPassing clouds.13 mph57%30.04 "Hg10 mi
Weather by CustomWeather, © 2015

See weather overviewHow to use our weather pages